Flag for Germany Weather past 2 weeks in Heilbronn, Baden-Württemberg, Germany

Now
33 °F

Low clouds.


Feels Like: 28 °F
Forecast: 30 / 37 °F
Wind: 6 mph from West

Location: Oehringen

Current Time: Feb 1, 2015 at 7:21:51 PM

Latest Report: Feb 1, 2015 at 7:00 PM


Visibility: 4 mi

Pressure: 29.41 "Hg

Humidity: 94%

Dew point: 32 °F

Location of HeilbronnLocation

Historic Weather in Heilbronn — Graph

°F

Heilbronn temperature yesterday

Maximum temperature yesterday: 37 °F (at 4:00 PM)
Minimum temperature yesterday: 31 °F (at 9:00 AM)
Average temperature yesterday: 34 °F

Past Weeks' High & Low Weather Summary

 TemperatureHumidityPressure
High40 °F (Jan 28, 5:00 PM)99% (Jan 20, 2:00 AM)30.45 "Hg (Jan 20, 2:00 AM)
Low27 °F (Jan 21, 4:00 AM)67% (Jan 19, 12:00 PM)28.76 "Hg (Jan 30, 1:00 AM)
Average34 °F89%29.85 "Hg
* Reported Jan 17 6:00 PM — Feb 1 6:00 PM, Heilbronn, Weather by CustomWeather, © 2014

Note: Actual official high and low records may vary slightly from our data, if they occured in-between our weather recording intervals... More about our weather records

Advertising

Heilbronn weather history for previous 24 hours

 ConditionsComfort  
Time TempWeatherWind HumidityBarometerVisibility
6:00 PM
Feb 1
32 °FSnow. Low clouds.5 mph97%29.38 "Hg1 mi
5:00 PM33 °FLight snow. Low clouds.2 mph96%29.35 "Hg2 mi
4:00 PM34 °FOvercast.2 mph87%29.35 "Hg14 mi
3:00 PM35 °FLight snow. Overcast.5 mph79%29.32 "Hg7 mi
2:00 PM35 °FOvercast.5 mph80%29.32 "Hg16 mi
1:00 PM34 °FPartly sunny.3 mph88%29.32 "Hg9 mi
12:00 PM33 °FLow clouds.5 mph87%29.32 "Hg7 mi
11:00 AM33 °FLight snow. Low clouds.3 mph94%29.29 "Hg2 mi
10:00 AM33 °FDrizzle. Low clouds.3 mph95%29.26 "Hg4 mi
9:00 AM33 °FSnow flurries. Low clouds.3 mph95%29.23 "Hg4 mi
8:00 AM32 °FLow clouds.3 mph92%29.21 "Hg9 mi
7:00 AM32 °FSnow flurries. Overcast.2 mph92%29.21 "Hg4 mi
6:00 AM34 °FLight snow. Overcast.2 mph79%29.18 "Hg8 mi
5:00 AM33 °FLight snow. Overcast.2 mph81%29.18 "Hg15 mi
4:00 AM32 °FOvercast.1 mph87%29.18 "Hg14 mi
3:00 AM32 °FOvercast.3 mph88%29.18 "Hg10 mi
2:00 AM31 °FClear.2 mph91%29.18 "Hg7 mi
1:00 AM31 °FClear.2 mph92%29.18 "Hg7 mi
12:00 AM33 °FOvercast.1 mph92%29.21 "Hg7 mi
11:00 PM
Jan 31
33 °FOvercast.3 mph89%29.18 "Hg9 mi
10:00 PM34 °FLow clouds.5 mph93%29.18 "Hg6 mi
9:00 PM33 °FLow clouds.2 mph96%29.18 "Hg3 mi
8:00 PM33 °FSnow. Low clouds.No wind96%29.15 "Hg1 mi
7:00 PM33 °FLight snow. Overcast.1 mph93%29.15 "Hg2 mi
Weather by CustomWeather, © 2014

See weather overviewHow to use our weather pages